TimeCST,TemperatureF,Dew PointF,Humidity,Sea Level PressureIn,VisibilityMPH,Wind Direction,Wind SpeedMPH,Gust SpeedMPH,PrecipitationIn,Events,Conditions,WindDirDegrees,DateUTC
12:15 AM,39.6,30.7,71,29.81,10.0,West,11.5,-,N/A,,Clear,260,2013-01-19 06:15:00
12:35 AM,39.2,30.7,72,29.82,10.0,West,10.4,-,N/A,,Clear,260,2013-01-19 06:35:00
12:55 AM,39.4,30.9,72,29.81,10.0,WSW,11.5,-,N/A,,Clear,250,2013-01-19 06:55:00
1:15 AM,38.7,30.7,73,29.82,10.0,WSW,8.1,-,N/A,,Clear,240,2013-01-19 07:15:00
1:35 AM,39.0,30.6,72,29.82,10.0,SW,8.1,-,N/A,,Clear,230,2013-01-19 07:35:00
1:55 AM,39.2,30.6,71,29.83,10.0,SW,9.2,-,N/A,,Clear,230,2013-01-19 07:55:00
2:15 AM,38.8,30.6,72,29.83,10.0,WSW,10.4,-,N/A,,Clear,240,2013-01-19 08:15:00
2:35 AM,38.3,30.6,74,29.83,10.0,SW,4.6,-,N/A,,Scattered Clouds,230,2013-01-19 08:35:00
2:55 AM,38.3,30.7,74,29.83,10.0,SW,5.8,-,N/A,,Mostly Cloudy,230,2013-01-19 08:55:00
3:15 AM,38.5,30.7,74,29.82,10.0,SW,5.8,-,N/A,,Overcast,230,2013-01-19 09:15:00
3:35 AM,38.5,30.7,74,29.82,10.0,SW,4.6,-,N/A,,Overcast,220,2013-01-19 09:35:00
3:55 AM,38.3,30.7,74,29.82,10.0,Calm,Calm,-,N/A,,Overcast,0,2013-01-19 09:55:00
4:15 AM,37.8,30.9,76,29.82,10.0,SSW,4.6,-,N/A,,Overcast,200,2013-01-19 10:15:00
4:35 AM,37.4,30.9,77,29.81,10.0,SSW,6.9,-,N/A,,Scattered Clouds,200,2013-01-19 10:35:00
4:55 AM,37.4,30.9,77,29.80,10.0,SSW,5.8,-,N/A,,Scattered Clouds,210,2013-01-19 10:55:00
5:15 AM,37.4,30.9,77,29.80,10.0,SSW,4.6,-,N/A,,Overcast,210,2013-01-19 11:15:00
5:35 AM,37.2,30.9,78,29.80,10.0,SSW,5.8,-,N/A,,Overcast,210,2013-01-19 11:35:00
6:35 AM,37.6,30.9,77,29.80,10.0,SW,5.8,-,N/A,,Overcast,220,2013-01-19 12:35:00
6:55 AM,37.4,30.9,77,29.79,10.0,SSW,4.6,-,N/A,,Overcast,210,2013-01-19 12:55:00
7:15 AM,37.4,30.9,77,29.78,10.0,SSW,5.8,-,N/A,,Overcast,210,2013-01-19 13:15:00
7:55 AM,37.6,30.9,77,29.78,10.0,SW,9.2,-,N/A,,Overcast,220,2013-01-19 13:55:00
8:15 AM,38.3,31.1,75,29.77,10.0,SW,9.2,-,N/A,,Overcast,220,2013-01-19 14:15:00
8:35 AM,38.5,31.1,75,29.76,10.0,SW,10.4,-,N/A,,Overcast,220,2013-01-19 14:35:00
9:35 AM,39.4,31.1,72,29.74,10.0,SSW,17.3,-,N/A,,Overcast,210,2013-01-19 15:35:00
9:55 AM,40.1,31.1,70,29.76,10.0,SW,12.7,19.6,N/A,,Scattered Clouds,230,2013-01-19 15:55:00
10:15 AM,40.1,31.5,71,29.73,10.0,SSW,10.4,17.3,N/A,,Clear,210,2013-01-19 16:15:00
10:35 AM,40.5,31.3,70,29.74,10.0,WSW,10.4,-,N/A,,Scattered Clouds,250,2013-01-19 16:35:00
10:55 AM,41.0,31.5,69,29.73,10.0,SW,12.7,19.6,N/A,,Clear,220,2013-01-19 16:55:00
11:15 AM,41.2,31.3,68,29.72,10.0,WSW,9.2,18.4,N/A,,Clear,240,2013-01-19 17:15:00
11:35 AM,43.2,31.6,64,29.69,10.0,West,13.8,21.9,N/A,,Scattered Clouds,280,2013-01-19 17:35:00
11:55 AM,43.2,30.9,62,29.69,10.0,WSW,17.3,-,N/A,,Scattered Clouds,240,2013-01-19 17:55:00
12:15 PM,42.8,31.1,63,29.67,10.0,SW,15.0,20.7,N/A,,Clear,230,2013-01-19 18:15:00
12:35 PM,43.7,31.3,62,29.67,10.0,WSW,17.3,-,N/A,,Clear,240,2013-01-19 18:35:00
12:55 PM,43.9,31.1,61,29.67,10.0,WSW,15.0,20.7,N/A,,Clear,250,2013-01-19 18:55:00
1:15 PM,44.4,30.9,59,29.67,10.0,West,11.5,20.7,N/A,,Clear,260,2013-01-19 19:15:00
1:35 PM,46.9,31.1,54,29.66,10.0,WSW,11.5,17.3,N/A,,Clear,250,2013-01-19 19:35:00
1:55 PM,47.8,30.7,52,29.65,10.0,WSW,11.5,-,N/A,,Clear,250,2013-01-19 19:55:00
2:15 PM,47.5,30.6,52,29.65,10.0,WSW,11.5,16.1,N/A,,Clear,240,2013-01-19 20:15:00
2:55 PM,46.0,30.4,54,29.66,10.0,West,18.4,24.2,N/A,,Clear,260,2013-01-19 20:55:00
3:15 PM,47.5,30.4,52,29.66,10.0,WSW,10.4,-,N/A,,Mostly Cloudy,240,2013-01-19 21:15:00
3:35 PM,46.9,30.7,53,29.66,10.0,WSW,13.8,19.6,N/A,,Scattered Clouds,240,2013-01-19 21:35:00
3:55 PM,45.5,30.9,57,29.68,10.0,WSW,9.2,-,N/A,,Clear,250,2013-01-19 21:55:00
4:15 PM,45.5,30.7,56,29.67,10.0,WSW,12.7,16.1,N/A,,Scattered Clouds,250,2013-01-19 22:15:00
4:35 PM,44.8,30.6,57,29.68,10.0,WSW,11.5,17.3,N/A,,Scattered Clouds,250,2013-01-19 22:35:00
4:55 PM,44.1,29.8,57,29.68,10.0,West,21.9,-,N/A,,Scattered Clouds,270,2013-01-19 22:55:00
5:15 PM,45.3,27.3,49,29.68,10.0,West,21.9,31.1,N/A,,Mostly Cloudy,270,2013-01-19 23:15:00
5:35 PM,43.7,27.9,54,29.69,10.0,West,25.3,31.1,N/A,,Scattered Clouds,270,2013-01-19 23:35:00
5:55 PM,43.3,28.0,55,29.70,10.0,West,28.8,39.1,N/A,,Mostly Cloudy,280,2013-01-19 23:55:00
6:15 PM,43.0,26.6,52,29.70,10.0,West,31.1,38.0,N/A,,Overcast,280,2013-01-20 00:15:00
6:35 PM,41.9,25.7,53,29.71,10.0,West,35.7,44.9,N/A,,Overcast,270,2013-01-20 00:35:00
6:55 PM,41.0,23.5,50,29.72,10.0,West,24.2,39.1,N/A,,Overcast,280,2013-01-20 00:55:00
7:15 PM,39.9,17.1,40,29.71,10.0,West,29.9,46.0,N/A,,Mostly Cloudy,270,2013-01-20 01:15:00
7:35 PM,37.9,15.3,40,29.72,10.0,WNW,21.9,36.8,N/A,,Scattered Clouds,290,2013-01-20 01:35:00
7:55 PM,35.8,12.6,38,29.73,10.0,WNW,25.3,40.3,N/A,,Clear,290,2013-01-20 01:55:00
8:15 PM,32.2,11.3,42,29.76,10.0,West,29.9,46.0,N/A,,Clear,280,2013-01-20 02:15:00
8:55 PM,26.4,6.3,42,29.81,10.0,WNW,31.1,40.3,N/A,,Clear,290,2013-01-20 02:55:00
9:15 PM,24.6,7.2,48,29.83,10.0,WNW,35.7,44.9,N/A,,Clear,300,2013-01-20 03:15:00
9:35 PM,22.1,5.0,48,29.85,10.0,WNW,32.2,43.7,N/A,,Clear,300,2013-01-20 03:35:00
9:55 PM,21.2,4.6,49,29.87,10.0,NW,27.6,42.6,N/A,,Clear,310,2013-01-20 03:55:00
10:15 PM,20.3,3.9,49,29.88,10.0,WNW,29.9,38.0,N/A,,Clear,290,2013-01-20 04:15:00
10:35 PM,19.6,4.3,52,29.90,10.0,WNW,19.6,35.7,N/A,,Scattered Clouds,290,2013-01-20 04:35:00
10:55 PM,18.5,3.9,53,29.92,10.0,WNW,24.2,34.5,N/A,,Scattered Clouds,290,2013-01-20 04:55:00
11:15 PM,17.6,3.6,54,29.94,10.0,WNW,20.7,35.7,N/A,,Mostly Cloudy,290,2013-01-20 05:15:00
11:35 PM,16.7,3.0,55,29.95,10.0,WNW,23.0,34.5,N/A,,Overcast,290,2013-01-20 05:35:00
11:55 PM,16.3,2.7,55,29.97,10.0,WNW,26.5,33.4,N/A,,Overcast,300,2013-01-20 05:55:00